EW7458 Weather Reports


time (UTC)temp
F
wind
direction
speed
knots
gust
knots
rain 1hr
in
rain 24hr
in
rain mn
in
humidity
%
barometer
mb
20260504223023 70 212 1.7 4.3 0.00 0.00 0.00 31 1006.9
20260504222019 70 199 4.3 9.6 0.00 0.00 0.00 31 1006.9
20260504221028 70 215 3.5 9.6 0.00 0.00 0.00 31 1006.9
20260504220028 71 201 1.7 5.2 0.00 0.00 0.00 31 1006.9
20260504215024 71 206 3.5 17.4 0.00 0.00 0.00 31 1007.0
20260504214022 71 199 3.5 5.2 0.00 0.00 0.00 30 1006.9
20260504213020 72 207 2.6 7.0 0.00 0.00 0.00 30 1006.9
20260504212029 74 216 2.6 3.5 0.00 0.00 0.00 29 1007.0
20260504211027 75 235 2.6 6.1 0.00 0.00 0.00 28 1007.0
20260504210025 74 263 1.7 2.6 0.00 0.00 0.00 29 1007.1
20260504205024 74 224 2.6 5.2 0.00 0.00 0.00 28 1007.0
20260504204023 73 210 2.6 6.1 0.00 0.00 0.00 28 1007.1
20260504203029 73 201 3.5 9.6 0.00 0.00 0.00 29 1006.9
20260504202028 73 233 2.6 4.3 0.00 0.00 0.00 29 1007.0
20260504201027 72 215 3.5 12.2 0.00 0.00 0.00 29 1006.9
20260504200023 71 197 3.5 9.6 0.00 0.00 0.00 29 1007.0
20260504195022 71 236 2.6 5.2 0.00 0.00 0.00 30 1007.0
20260504194020 70 230 1.7 7.0 0.00 0.00 0.00 30 1007.1
20260504193028 70 217 3.5 10.4 0.00 0.00 0.00 29 1007.1
20260504192026 70 199 4.3 11.3 0.00 0.00 0.00 29 1007.1
20260504191025 71 224 2.6 3.5 0.00 0.00 0.00 28 1007.2
20260504190024 71 230 2.6 2.6 0.00 0.00 0.00 28 1007.3
20260504185042 71 216 2.6 5.2 0.00 0.00 0.00 29 1007.4
20260504184029 72 204 5.2 9.6 0.00 0.00 0.00 26 1007.4
20260504183027 74 197 4.3 10.4 0.00 0.00 0.00 27 1007.5
20260504182026 73 200 4.3 8.7 0.00 0.00 0.00 27 1007.6
20260504181023 73 229 2.6 4.3 0.00 0.00 0.00 27 1007.7
20260504180021 73 220 3.5 8.7 0.00 0.00 0.00 28 1007.7
20260504175039 73 216 4.3 10.4 0.00 0.00 0.00 27 1007.8
20260504174028 73 184 3.5 7.8 0.00 0.00 0.00 28 1007.8
20260504173026 74 229 2.6 5.2 0.00 0.00 0.00 27 1007.9
20260504172024 73 223 4.3 7.0 0.00 0.00 0.00 28 1008.0
20260504171022 71 217 4.3 10.4 0.00 0.00 0.00 28 1008.1
20260504151020 68 227 2.6 7.0 0.00 0.00 0.00 32 1009.0
20260504141030 65 201 3.5 7.0 0.00 0.00 0.00 37 1009.8
20260504081042 40 0.0 0.0 0.00 0.03 0.00 79 1011.0
20260504045027 34 0.0 0.0 0.00 0.03 0.00 85 1011.1
20260504044023 34 0.0 0.0 0.00 0.03 0.00 85 1011.0
20260504043021 34 0.0 0.0 0.00 0.03 0.00 84 1011.0
20260504042039 34 0.0 0.0 0.00 0.03 0.00 83 1011.0
20260504041029 35 0.0 0.0 0.00 0.03 0.00 82 1010.9
20260504040027 35 0.0 0.0 0.00 0.03 0.00 81 1010.9
20260504035024 35 0.0 0.0 0.00 0.03 0.03 79 1010.8
20260504034042 36 0.0 0.0 0.00 0.03 0.03 79 1010.7
20260504033022 36 0.0 0.0 0.00 0.03 0.03 80 1010.7
20260504032029 36 0.0 0.0 0.00 0.03 0.03 79 1010.7
20260504031027 37 0.0 0.0 0.00 0.03 0.03 78 1010.7
20260504030026 37 0.0 0.0 0.00 0.03 0.03 78 1010.7
20260504025022 37 0.0 0.0 0.00 0.03 0.03 77 1010.7
20260504024040 38 0.0 0.0 0.00 0.03 0.03 76 1010.6
20260504023030 38 0.0 0.0 0.00 0.03 0.03 76 1010.6
20260504022028 38 0.0 0.0 0.00 0.03 0.03 74 1010.6
20260504021025 39 0.0 0.0 0.00 0.03 0.03 72 1010.5
20260504020044 39 0.0 0.0 0.00 0.03 0.03 71 1010.4
20260504015022 40 0.0 0.0 0.00 0.03 0.03 69 1010.4
20260504014021 40 0.0 0.0 0.00 0.03 0.03 68 1010.3
20260504013028 41 0.0 0.0 0.00 0.03 0.03 66 1010.2
20260504012047 41 0.0 0.0 0.00 0.03 0.03 63 1010.2
20260504011026 42 0.0 0.0 0.00 0.03 0.03 62 1010.1
20260504010022 43 0.0 0.0 0.00 0.03 0.03 58 1010.0
20260504005020 44 0.0 0.0 0.00 0.03 0.03 57 1009.8
20260504004029 45 0.0 0.0 0.00 0.03 0.03 53 1009.7
20260504003027 45 0.0 0.0 0.00 0.03 0.03 52 1009.6
20260504002026 46 0.0 0.0 0.00 0.03 0.03 50 1009.5
20260504001103 46 0.0 0.0 0.00 0.03 0.03 50 1009.4
20260504000041 47 0.0 0.0 0.00 0.03 0.03 49 1009.3
20260503235020 48 0.0 0.0 0.00 0.04 0.03 49 1009.2
20260503234027 48 232 0.0 3.5 0.00 0.05 0.03 48 1009.1
20260503233026 49 94 0.9 2.6 0.00 0.05 0.03 46 1009.0
20260503232025 49 258 0.9 1.7 0.00 0.05 0.03 46 1008.9
20260503231022 50 117 0.0 1.7 0.00 0.05 0.03 46 1008.8
20260503230020 50 342 0.9 4.3 0.00 0.05 0.03 44 1008.6
20260503225059 50 311 1.7 5.2 0.00 0.05 0.03 43 1008.6
20260503224027 51 297 1.7 3.5 0.00 0.05 0.03 42 1008.4